BAW8DS EGCC-EGKK

Flight info

Callsign BAW8DS
Flight time 0h 49m
Altitude 19000
Route LISTO L612 HON N859 KIDLI
Aircraft A320/M-SDE3FGHIRWY/LB1

Departure

Time 2026-05-04 19:43
Airport Manchester Airport (EGCC)

Arrival

Time 2026-05-04 20:32
Airport London Gatwick Airport (EGKK)
Time Latitude Longitude Altitude Speed Heading
2026-05-04 18:59 53.36250 -2.27694 246 ft 0 kts 196°
2026-05-04 19:32 53.36272 -2.27682 246 ft 4 kts 201°
2026-05-04 19:32 53.36296 -2.27664 246 ft 4 kts 212°
2026-05-04 19:32 53.36316 -2.27637 245 ft 4 kts 244°
2026-05-04 19:32 53.36319 -2.27610 245 ft 1 kts 284°
2026-05-04 19:33 53.36319 -2.27604 245 ft 0 kts 284°
2026-05-04 19:35 53.36319 -2.27605 245 ft 0 kts 284°
2026-05-04 19:36 53.36322 -2.27628 245 ft 5 kts 285°
2026-05-04 19:36 53.36335 -2.27716 246 ft 11 kts 284°
2026-05-04 19:36 53.36362 -2.27814 247 ft 0 kts 310°
2026-05-04 19:36 53.36371 -2.27830 247 ft 7 kts 313°
2026-05-04 19:37 53.36379 -2.27949 248 ft 13 kts 237°
2026-05-04 19:37 53.36312 -2.28050 250 ft 14 kts 201°
2026-05-04 19:37 53.36250 -2.28081 250 ft 15 kts 193°
2026-05-04 19:37 53.36160 -2.28007 250 ft 16 kts 136°
2026-05-04 19:38 53.36077 -2.27866 249 ft 17 kts 137°
2026-05-04 19:38 53.35958 -2.27840 249 ft 19 kts 187°
2026-05-04 19:38 53.35852 -2.27806 249 ft 15 kts 136°
2026-05-04 19:38 53.35773 -2.27670 248 ft 18 kts 148°
2026-05-04 19:39 53.35657 -2.27570 246 ft 20 kts 136°
2026-05-04 19:39 53.35642 -2.27409 244 ft 17 kts 58°
2026-05-04 19:39 53.35725 -2.27239 241 ft 21 kts 51°
2026-05-04 19:39 53.35824 -2.27029 238 ft 25 kts 53°
2026-05-04 19:40 53.35915 -2.26798 235 ft 26 kts 54°
2026-05-04 19:40 53.36028 -2.26557 231 ft 23 kts 51°
2026-05-04 19:40 53.36118 -2.26369 228 ft 21 kts 52°
2026-05-04 19:40 53.36214 -2.26212 225 ft 19 kts 50°
2026-05-04 19:41 53.36269 -2.26042 223 ft 8 kts 90°
2026-05-04 19:41 53.36269 -2.26036 223 ft 1 kts 92°
2026-05-04 19:41 53.36273 -2.25965 222 ft 11 kts 76°
2026-05-04 19:41 53.36282 -2.25822 221 ft 14 kts 111°
2026-05-04 19:42 53.36202 -2.25788 222 ft 15 kts 226°
2026-05-04 19:42 53.36075 -2.26050 225 ft 59 kts 231°
2026-05-04 19:42 53.35686 -2.26856 237 ft 116 kts 231°
2026-05-04 19:42 53.35090 -2.28096 296 ft 153 kts 231°
2026-05-04 19:43 53.34421 -2.29479 817 ft 154 kts 231°
2026-05-04 19:43 53.33718 -2.30841 1411 ft 155 kts 232°
2026-05-04 19:43 53.32957 -2.32260 1780 ft 175 kts 232°
2026-05-04 19:43 53.32143 -2.33935 2128 ft 196 kts 245°
2026-05-04 19:44 53.31990 -2.36214 2497 ft 210 kts 288°
2026-05-04 19:44 53.32693 -2.38479 2959 ft 227 kts 298°
2026-05-04 19:44 53.33117 -2.41104 3561 ft 247 kts 268°
2026-05-04 19:44 53.32554 -2.43863 4268 ft 260 kts 233°
2026-05-04 19:45 53.31113 -2.45736 4850 ft 270 kts 202°
2026-05-04 19:45 53.29262 -2.46041 4986 ft 271 kts 172°
2026-05-04 19:45 53.27418 -2.45354 5006 ft 273 kts 161°
2026-05-04 19:45 53.25749 -2.43946 5013 ft 273 kts 150°
2026-05-04 19:46 53.24100 -2.42365 5012 ft 274 kts 152°
2026-05-04 19:46 53.22402 -2.40819 5010 ft 274 kts 152°
2026-05-04 19:46 53.20713 -2.39324 5012 ft 275 kts 153°
2026-05-04 19:46 53.19040 -2.37865 5013 ft 274 kts 153°
2026-05-04 19:47 53.17351 -2.36401 5011 ft 273 kts 153°
2026-05-04 19:47 53.15636 -2.34915 5020 ft 276 kts 153°
2026-05-04 19:47 53.13922 -2.33425 5759 ft 279 kts 153°
2026-05-04 19:47 53.12221 -2.31938 6687 ft 281 kts 153°
2026-05-04 19:48 53.10478 -2.30412 7542 ft 285 kts 153°
2026-05-04 19:48 53.08690 -2.28849 8402 ft 288 kts 153°
2026-05-04 19:48 53.06903 -2.27287 9262 ft 292 kts 153°
2026-05-04 19:48 53.05123 -2.25734 10099 ft 294 kts 153°
2026-05-04 19:49 53.03239 -2.24098 10459 ft 315 kts 153°
2026-05-04 19:49 53.01235 -2.22363 10659 ft 338 kts 154°
2026-05-04 19:49 52.99083 -2.20499 10887 ft 357 kts 153°
2026-05-04 19:49 52.96862 -2.18574 11523 ft 362 kts 153°
2026-05-04 19:50 52.94623 -2.16629 12212 ft 365 kts 153°
2026-05-04 19:50 52.92334 -2.14643 12902 ft 368 kts 153°
2026-05-04 19:50 52.90049 -2.12669 13599 ft 372 kts 153°
2026-05-04 19:50 52.87743 -2.10682 14241 ft 375 kts 153°
2026-05-04 19:51 52.85417 -2.08681 14851 ft 379 kts 153°
2026-05-04 19:51 52.83102 -2.06690 15435 ft 381 kts 153°
2026-05-04 19:51 52.80740 -2.04659 16038 ft 384 kts 153°
2026-05-04 19:51 52.78359 -2.02611 16649 ft 387 kts 154°
2026-05-04 19:52 52.75959 -2.00551 17251 ft 390 kts 154°
2026-05-04 19:52 52.73538 -1.98478 17875 ft 394 kts 154°
2026-05-04 19:52 52.71097 -1.96393 18506 ft 397 kts 154°
2026-05-04 19:52 52.68641 -1.94294 18910 ft 399 kts 154°
2026-05-04 19:53 52.66173 -1.92183 19029 ft 401 kts 154°
2026-05-04 19:53 52.63641 -1.90025 19060 ft 419 kts 154°
2026-05-04 19:53 52.61005 -1.87785 19058 ft 434 kts 154°
2026-05-04 19:53 52.58302 -1.85490 19057 ft 439 kts 154°
2026-05-04 19:54 52.55578 -1.83177 19058 ft 441 kts 154°
2026-05-04 19:54 52.52851 -1.80860 19056 ft 441 kts 154°
2026-05-04 19:54 52.50127 -1.78544 19052 ft 441 kts 154°
2026-05-04 19:54 52.47402 -1.76235 19057 ft 440 kts 154°
2026-05-04 19:55 52.44681 -1.73937 19057 ft 440 kts 154°
2026-05-04 19:55 52.41961 -1.71649 19057 ft 440 kts 154°
2026-05-04 19:55 52.39241 -1.69364 19057 ft 440 kts 154°
2026-05-04 19:55 52.36514 -1.67101 19055 ft 439 kts 156°
2026-05-04 19:56 52.33669 -1.65317 19053 ft 437 kts 164°
2026-05-04 19:56 52.30773 -1.63818 19052 ft 437 kts 164°
2026-05-04 19:56 52.27874 -1.62310 19050 ft 437 kts 164°
2026-05-04 19:56 52.24982 -1.60802 19049 ft 436 kts 163°
2026-05-04 19:57 52.22090 -1.59295 19050 ft 436 kts 163°
2026-05-04 19:57 52.19207 -1.57791 19049 ft 435 kts 163°
2026-05-04 19:57 52.16336 -1.56293 19048 ft 435 kts 163°
2026-05-04 19:57 52.13439 -1.54784 19046 ft 435 kts 163°
2026-05-04 19:58 52.10555 -1.53288 19045 ft 435 kts 163°
2026-05-04 19:58 52.07669 -1.51801 19045 ft 435 kts 164°
2026-05-04 19:58 52.04785 -1.50318 19043 ft 435 kts 164°
2026-05-04 19:58 52.01902 -1.48834 19037 ft 435 kts 163°
2026-05-04 19:59 51.99017 -1.47347 19036 ft 435 kts 163°
2026-05-04 19:59 51.96135 -1.45860 19031 ft 435 kts 163°
2026-05-04 19:59 51.93252 -1.44372 18970 ft 430 kts 163°
2026-05-04 19:59 51.90425 -1.42917 18183 ft 424 kts 163°
2026-05-04 20:00 51.87633 -1.41486 17461 ft 417 kts 163°
2026-05-04 20:00 51.84888 -1.40084 16821 ft 410 kts 163°
2026-05-04 20:00 51.82184 -1.38710 16208 ft 405 kts 163°
2026-05-04 20:00 51.79504 -1.37348 15588 ft 402 kts 163°
2026-05-04 20:01 51.76926 -1.35705 15163 ft 395 kts 153°
2026-05-04 20:01 51.74616 -1.33474 14987 ft 379 kts 147°
2026-05-04 20:01 51.72459 -1.31210 14951 ft 361 kts 147°
2026-05-04 20:01 51.70402 -1.29068 14921 ft 343 kts 147°
2026-05-04 20:02 51.68441 -1.27036 14935 ft 326 kts 147°
2026-05-04 20:02 51.66578 -1.25107 15013 ft 314 kts 147°
2026-05-04 20:02 51.64751 -1.23213 15028 ft 312 kts 148°
2026-05-04 20:02 51.62927 -1.21325 15030 ft 311 kts 148°
2026-05-04 20:03 51.61107 -1.19441 15030 ft 311 kts 147°
2026-05-04 20:03 51.59286 -1.17554 15024 ft 311 kts 147°
2026-05-04 20:03 51.57465 -1.15665 15030 ft 311 kts 148°
2026-05-04 20:03 51.55647 -1.13784 15030 ft 310 kts 147°
2026-05-04 20:04 51.53834 -1.11909 15030 ft 310 kts 147°
2026-05-04 20:04 51.52019 -1.10035 15030 ft 310 kts 147°
2026-05-04 20:04 51.50203 -1.08163 15031 ft 311 kts 147°
2026-05-04 20:04 51.48383 -1.06291 15031 ft 310 kts 147°
2026-05-04 20:05 51.46566 -1.04423 14977 ft 311 kts 147°
2026-05-04 20:05 51.44747 -1.02551 14835 ft 310 kts 147°
2026-05-04 20:05 51.42940 -1.00691 14685 ft 309 kts 147°
2026-05-04 20:05 51.41127 -0.98828 14538 ft 308 kts 147°
2026-05-04 20:06 51.39324 -0.96982 14395 ft 307 kts 147°
2026-05-04 20:06 51.37523 -0.95140 14246 ft 307 kts 147°
2026-05-04 20:06 51.35730 -0.93304 14102 ft 301 kts 147°
2026-05-04 20:06 51.34020 -0.91556 13975 ft 282 kts 147°
2026-05-04 20:07 51.32410 -0.89910 13661 ft 270 kts 146°
2026-05-04 20:07 51.30839 -0.88309 13173 ft 266 kts 146°
2026-05-04 20:07 51.29283 -0.86722 12666 ft 263 kts 146°
2026-05-04 20:07 51.27748 -0.85157 12170 ft 260 kts 146°
2026-05-04 20:08 51.26227 -0.83612 11678 ft 258 kts 147°
2026-05-04 20:08 51.24729 -0.82089 11327 ft 250 kts 147°
2026-05-04 20:08 51.23248 -0.80579 11209 ft 255 kts 147°
2026-05-04 20:08 51.21749 -0.79047 11088 ft 256 kts 147°
2026-05-04 20:09 51.20238 -0.77512 10991 ft 258 kts 147°
2026-05-04 20:09 51.18735 -0.75991 10887 ft 255 kts 147°
2026-05-04 20:09 51.17238 -0.74472 10781 ft 255 kts 147°
2026-05-04 20:09 51.15738 -0.72948 10676 ft 256 kts 147°
2026-05-04 20:10 51.14243 -0.71433 10570 ft 254 kts 147°
2026-05-04 20:10 51.12751 -0.69923 10457 ft 254 kts 148°
2026-05-04 20:10 51.11264 -0.68425 10359 ft 252 kts 148°
2026-05-04 20:10 51.09784 -0.66933 10252 ft 252 kts 148°
2026-05-04 20:11 51.08308 -0.65445 10132 ft 251 kts 148°
2026-05-04 20:11 51.06839 -0.63936 10028 ft 252 kts 143°
2026-05-04 20:11 51.05545 -0.62061 9918 ft 252 kts 131°
2026-05-04 20:11 51.04546 -0.59779 9801 ft 252 kts 118°
2026-05-04 20:12 51.03767 -0.57282 9688 ft 252 kts 117°
2026-05-04 20:12 51.02988 -0.54789 9584 ft 252 kts 117°
2026-05-04 20:12 51.02208 -0.52307 9480 ft 251 kts 117°
2026-05-04 20:12 51.01431 -0.49833 9372 ft 251 kts 117°
2026-05-04 20:13 51.00653 -0.47356 9269 ft 250 kts 117°
2026-05-04 20:13 50.99874 -0.44881 9166 ft 251 kts 117°
2026-05-04 20:13 50.99097 -0.42416 9056 ft 250 kts 117°
2026-05-04 20:13 50.98319 -0.39946 8949 ft 250 kts 117°
2026-05-04 20:14 50.97546 -0.37488 8847 ft 249 kts 117°
2026-05-04 20:14 50.96773 -0.35033 8745 ft 248 kts 117°
2026-05-04 20:14 50.96000 -0.32584 8643 ft 248 kts 117°
2026-05-04 20:14 50.95226 -0.30141 8539 ft 248 kts 117°
2026-05-04 20:15 50.94452 -0.27697 8440 ft 248 kts 117°
2026-05-04 20:15 50.93678 -0.25261 8331 ft 247 kts 117°
2026-05-04 20:15 50.92904 -0.22834 8232 ft 246 kts 117°
2026-05-04 20:15 50.92141 -0.20434 8125 ft 242 kts 117°
2026-05-04 20:16 50.91377 -0.18036 8031 ft 245 kts 117°
2026-05-04 20:16 50.90608 -0.15620 7924 ft 246 kts 117°
2026-05-04 20:16 50.89839 -0.13208 7829 ft 245 kts 117°
2026-05-04 20:16 50.89080 -0.10828 7732 ft 245 kts 116°
2026-05-04 20:17 50.88380 -0.08380 7649 ft 244 kts 105°
2026-05-04 20:17 50.88241 -0.05725 7599 ft 244 kts 82°
2026-05-04 20:17 50.88772 -0.03197 7538 ft 244 kts 59°
2026-05-04 20:17 50.89890 -0.01200 7409 ft 243 kts 36°
2026-05-04 20:18 50.91401 -0.00061 7289 ft 243 kts 12°
2026-05-04 20:18 50.93080 0.00054 7175 ft 242 kts 349°
2026-05-04 20:18 50.94645 -0.00878 7059 ft 242 kts 327°
2026-05-04 20:18 50.95860 -0.02708 6984 ft 243 kts 304°
2026-05-04 20:19 50.96541 -0.05153 6990 ft 245 kts 284°
2026-05-04 20:19 50.96938 -0.07785 6990 ft 246 kts 283°
2026-05-04 20:19 50.97308 -0.10430 6989 ft 245 kts 282°
2026-05-04 20:19 50.97669 -0.13078 6989 ft 245 kts 282°
2026-05-04 20:20 50.98029 -0.15721 6988 ft 245 kts 282°
2026-05-04 20:20 50.98392 -0.18366 6988 ft 246 kts 283°
2026-05-04 20:20 50.98568 -0.21024 6983 ft 237 kts 263°
2026-05-04 20:20 50.98069 -0.23409 6981 ft 222 kts 237°
2026-05-04 20:21 50.97045 -0.25092 6977 ft 206 kts 211°
2026-05-04 20:21 50.96180 -0.25745 6980 ft 203 kts 195°
2026-05-04 20:21 50.93469 -0.25294 6982 ft 200 kts 148°
2026-05-04 20:22 50.92423 -0.23866 6982 ft 199 kts 125°
2026-05-04 20:22 50.91807 -0.21913 6983 ft 199 kts 108°
2026-05-04 20:22 50.91485 -0.19819 6983 ft 198 kts 93°
2026-05-04 20:22 50.91628 -0.17654 6949 ft 200 kts 72°
2026-05-04 20:23 50.92286 -0.15730 6707 ft 197 kts 48°
2026-05-04 20:23 50.93346 -0.14383 6588 ft 196 kts 26°
2026-05-04 20:23 50.94645 -0.13778 6468 ft 196 kts
2026-05-04 20:23 50.95993 -0.14016 6345 ft 197 kts 341°
2026-05-04 20:24 50.97185 -0.15066 6211 ft 198 kts 319°
2026-05-04 20:24 50.98058 -0.16734 5986 ft 197 kts 307°
2026-05-04 20:24 50.98867 -0.18489 5713 ft 197 kts 307°
2026-05-04 20:24 50.99670 -0.20247 5436 ft 196 kts 307°
2026-05-04 20:25 51.00471 -0.22001 5146 ft 196 kts 308°
2026-05-04 20:25 51.01268 -0.23747 4878 ft 195 kts 308°
2026-05-04 20:25 51.02064 -0.25490 4597 ft 194 kts 308°
2026-05-04 20:25 51.02856 -0.27228 4315 ft 194 kts 307°
2026-05-04 20:26 51.03646 -0.28960 4036 ft 193 kts 308°
2026-05-04 20:26 51.04431 -0.30685 3778 ft 192 kts 308°
2026-05-04 20:26 51.05214 -0.32406 3507 ft 192 kts 308°
2026-05-04 20:26 51.05994 -0.34128 3241 ft 192 kts 308°
2026-05-04 20:27 51.06766 -0.35835 3088 ft 187 kts 308°
2026-05-04 20:27 51.07503 -0.37464 2994 ft 175 kts 308°
2026-05-04 20:27 51.08180 -0.38962 2992 ft 160 kts 309°
2026-05-04 20:27 51.08958 -0.40141 2994 ft 152 kts 335°
2026-05-04 20:28 51.09955 -0.40593 2861 ft 148 kts
2026-05-04 20:28 51.10934 -0.40299 2689 ft 142 kts 26°
2026-05-04 20:28 51.11714 -0.39377 2558 ft 140 kts 50°
2026-05-04 20:28 51.12168 -0.38029 2409 ft 139 kts 73°
2026-05-04 20:29 51.12380 -0.36529 2242 ft 138 kts 76°
2026-05-04 20:29 51.12589 -0.35036 2056 ft 138 kts 76°
2026-05-04 20:29 51.12797 -0.33551 1876 ft 137 kts 76°
2026-05-04 20:29 51.13005 -0.32062 1696 ft 138 kts 76°
2026-05-04 20:30 51.13212 -0.30576 1497 ft 137 kts 76°
2026-05-04 20:30 51.13419 -0.29087 1311 ft 138 kts 76°
2026-05-04 20:30 51.13627 -0.27596 1122 ft 138 kts 76°
2026-05-04 20:30 51.13835 -0.26099 936 ft 138 kts 76°
2026-05-04 20:31 51.14041 -0.24605 738 ft 139 kts 77°
2026-05-04 20:31 51.14253 -0.23084 591 ft 140 kts 75°
2026-05-04 20:31 51.14459 -0.21645 380 ft 128 kts 76°
2026-05-04 20:31 51.14650 -0.20249 234 ft 126 kts 76°
2026-05-04 20:32 51.14808 -0.19109 211 ft 75 kts 77°
2026-05-04 20:32 51.14883 -0.18638 209 ft 35 kts 59°
2026-05-04 20:32 51.15022 -0.18364 209 ft 25 kts 53°
2026-05-04 20:32 51.15040 -0.18326 209 ft 0 kts 53°
2026-05-04 20:33 51.15041 -0.18323 209 ft 2 kts 53°
2026-05-04 20:33 51.15098 -0.18210 205 ft 18 kts 52°
2026-05-04 20:33 51.15143 -0.17986 205 ft 23 kts 76°
2026-05-04 20:33 51.15180 -0.17726 207 ft 25 kts 77°
2026-05-04 20:34 51.15210 -0.17495 205 ft 16 kts 78°
2026-05-04 20:34 51.15245 -0.17352 208 ft 9 kts 36°
2026-05-04 20:34 51.15262 -0.17345 209 ft 1 kts
2026-05-04 20:34 51.15272 -0.17344 207 ft 0 kts
2026-05-04 20:35 51.15281 -0.17347 205 ft 5 kts 350°
2026-05-04 20:35 51.15349 -0.17352 213 ft 13 kts 34°
2026-05-04 20:35 51.15385 -0.17210 205 ft 16 kts 74°
2026-05-04 20:35 51.15422 -0.17036 205 ft 17 kts 78°
2026-05-04 20:36 51.15454 -0.16961 207 ft 8 kts
2026-05-04 20:36 51.15485 -0.16968 205 ft 0 kts 349°